Lexington Weather

Lexington, Massachusetts, USA

54°F
12/10/2019 4:08pm 
  • Lexington Conditions: Light rain, Overcast
  • Temperature: 54.1°F / 12.3°CColder 0.9°F than last hour.
  • Dew Point: 52.5°FDecreased 0.6°Fsince last hour.
  • Relative Humidity: 94%Increased 1.0% since last hour.
  • Wind: Wind from SW SW 2 mph, 10-min avg: 4 mph, gust: 10 mph
  • Barometer: 29.70 in Steady
  • Visibility: 10 miles
  • Rain Today: 0.04 in
  •   

Regional Weather Roundup
for Boston / Norton, MA

        
000
ASUS41 KBOX 092310
RWRBOX

REGIONAL WEATHER ROUNDUP
NATIONAL WEATHER SERVICE BOSTON/NORTON MA
600 PM EST MON DEC 09 2019

NOTE:  "FAIR" INDICATES FEW OR NO CLOUDS BELOW 12,000 FEET WITH NO 
SIGNIFICANT WEATHER AND/OR OBSTRUCTIONS TO VISIBILITY.

MAZALL-100000-
EASTERN MASSACHUSETTS
  
CITY           SKY/WX    TMP DP  RH WIND       PRES   REMARKS
BOSTON         LGT RAIN  56  51  84 S15       29.86F                  
BEVERLY        CLOUDY    52  50  93 S9        29.85F                  
LAWRENCE       CLOUDY    52  50  93 S9        29.86F                  
BEDFORD        LGT RAIN  51  49  92 S10       29.84F FOG              
BLUE HILL        N/A     53  52  96 S22G31    29.85F                  
NORWOOD        CLOUDY    58  52  80 S10       29.86F                  
MARSHFIELD     RAIN      57  57 100 SW8G16    29.89S VSB 3/4          
PLYMOUTH       NOT AVBL                                               
TAUNTON        RAIN      57  53  86 SW8G18    29.89F FOG              
NEW BEDFORD    HVY RAIN  56  55  97 S22G32    29.89F FOG              
$$

MAZALL-100000-
CAPE COD AND THE ISLANDS
  
CITY           SKY/WX    TMP DP  RH WIND       PRES   REMARKS
FALMOUTH       LGT RAIN  55  55 100 S22G30    29.91F                  
HYANNIS        LGT RAIN  54  51  90 S13G24    29.91F FOG              
CHATHAM        LGT RAIN  54  52  93 S15G32    29.95F FOG              
NANTUCKET      LGT RAIN  52  49  89 S21       29.96F FOG              
MARTHAS VNYRD  HVY RAIN  55  53  93 S17G31    29.92F FOG              
$$
 
MAZALL-100000-
CENTRAL AND WESTERN MASSACHUSETTS
  
CITY           SKY/WX    TMP DP  RH WIND       PRES   REMARKS
WORCESTER      LGT RAIN  48  47  96 S14       29.83F                  
FITCHBURG      NOT AVBL                                               
ORANGE         LGT RAIN  50  47  89 S14G22    29.80F                  
SPRINGFIELD    LGT RAIN  47  47 100 S13       29.80S FOG              
WESTFIELD      LGT RAIN  38  37  97 SW5       29.81S VSB 3/4          
NORTH ADAMS    LGT RAIN  51  43  74 SW20G37   29.75F                  
PITTSFIELD     LGT RAIN  47  44  90 S14G28    29.75F                  
$$
 
RIZALL-100000-
RHODE ISLAND
  
CITY           SKY/WX    TMP DP  RH WIND       PRES   REMARKS
PROVIDENCE     HVY RAIN  55  55 100 S12       29.89F FOG              
NEWPORT        HVY RAIN  56  53  90 SW7G17    29.90F FOG              
BLOCK ISLAND   LGT RAIN  54  54 100 SW14      29.90F FOG              
SMITHFIELD     LGT RAIN  53  53 100 SW9       29.87F                  
WESTERLY       LGT RAIN  56  53  90 SW6       29.90F FOG              
$$
 
CTZALL-100000-
CONNECTICUT
  
CITY           SKY/WX    TMP DP  RH WIND       PRES   REMARKS
BRADLEY INTL   LGT RAIN  48  46  93 S10       29.82F VSB 3/4          
HARTFORD       LGT RAIN  51  49  92 S9        29.83F                  
BRIDGEPORT     RAIN      51  50  96 S10       29.86F FOG              
DANBURY        LGT RAIN  51  49  92 S10       29.84F                  
GROTON         LGT RAIN  51  51 100 SW7       29.88F FOG              
NEW HAVEN      LGT RAIN  53  51  93 S6        29.86F FOG              
CHESTER        LGT RAIN  54  54 100 S10G20    29.86F                  
MERIDEN        RAIN      51  50  96 S12       29.85S                  
WILLIMANTIC    LGT RAIN  52  52 100 S9        29.86F                  
OXFORD         RAIN      50  50 100 SW8       29.85S FOG              
$$

MEZ002-015-021-024-NHZ003-005-008-011-012-014-VTZ005-008-100000-
NORTHERN NEW ENGLAND
  
CITY           SKY/WX    TMP DP  RH WIND       PRES   REMARKS
PORTLAND ME    LGT RAIN  51  47  86 S14G28    29.84F FOG              
BANGOR ME      LGT RAIN  49  48  97 S18G32    29.85F FOG              
CONCORD NH     LGT RAIN  35  35 100 CALM      29.81F VSB 1/2          
MANCHESTER NH  LGT RAIN  49  49 100 S9        29.81F VSB 1/2          
NASHUA NH      LGT RAIN  44  44 100 VRB3      29.83F FOG              
PORTSMOUTH NH  LGT RAIN  47  47  99 S12       29.82F VSB 1/2          
JAFFREY NH     LGT RAIN  48  46  93 S12       29.78F                  
KEENE NH       LGT RAIN  36  36 100 VRB3      29.78F FOG              
BURLINGTON VT  CLOUDY    43  40  89 S10       29.62F                  
MT. WASHINGTON SNOW      32  32 100 SW41G58     N/A  VSB 1/16WCI  16  
$$

NYZ052-076-100000-
EASTERN NEW YORK
  
CITY           SKY/WX    TMP DP  RH WIND       PRES   REMARKS
ALBANY         DRIZZLE   45  41  86 S18G28    29.72F                  
NEW YORK CITY  HVY RAIN  53  50  89 S9        29.84F FOG              
$$
 
ANZALL-100000-
MARINE OBSERVATIONS
  
STATION/POSITION TIME  TEMP    WIND        PRES    VSBY  WAVE
                       AIR SEA DIR/SP/G                  HT/PER
                 (UTC) (F)     (DEG/KT/KT) (MB)    (MI)  (FT/S)
BOSTON BUOY      2250   50 48  150/ 14/ 16 1011.3F         4/ 5
BUZZARDS BAY     2200   54     180/ 28/ 32 1012.7F
NANTUCKET SOUND  2240      43              1013.7
MASS BAY-STELLWA 2204   49 46  190/ 17/ 21 1010.7F  1 3/4  6/ 5
ISLE OF SHOALS   2200   50     170/ 29/ 32 1011.0F
S OF BLOCK IS    2300      52                N/A          11/ 9
$$

......................KEY.........................
  SKY/WX - SKY CONDITION/PRESENT WEATHER
  TMP    - TEMPERATURE IN FAHRENHEIT
  DWPT   - DEWPOINT IN FAHRENHEIT
  RH     - RELATIVE HUMIDITY IN PERCENT
  WIND   - DIRECTION AND SPEED IN MPH
  PRES   - MEAN SEA LEVEL PRESSURE IN INCHES OF HG
  WCI    - WIND CHILL INDEX
  VSB    - VISIBILITY IN MILES
  HX     - HEAT INDEX
  TC     - TEMPERATURE IN CELSIUS
  VRB    - VARIABLE WIND DIRECTION
  N/A    - NOT AVAILABLE
  
      

Other recent Regional Weather Roundups

Tue Dec 10, 3:10pm

Tue Dec 10, 3:01pm

Tue Dec 10, 2:10pm

Tue Dec 10, 2:01pm

Tue Dec 10, 1:10pm

Tue Dec 10, 1:00pm

Tue Dec 10, 12:10pm

Tue Dec 10, 12:00pm

Tue Dec 10, 11:10am

Tue Dec 10, 11:00am

Tue Dec 10, 10:10am

Tue Dec 10, 10:00am

Tue Dec 10, 9:10am

Tue Dec 10, 9:01am

Tue Dec 10, 8:10am

Tue Dec 10, 8:00am

Tue Dec 10, 7:10am

Tue Dec 10, 7:00am

Tue Dec 10, 6:10am

Tue Dec 10, 6:00am

Tue Dec 10, 5:10am

Tue Dec 10, 5:00am

Tue Dec 10, 4:10am

Tue Dec 10, 4:00am

Tue Dec 10, 3:10am

Tue Dec 10, 3:00am

Tue Dec 10, 2:10am

Tue Dec 10, 2:01am

Tue Dec 10, 1:10am

Tue Dec 10, 1:00am

Tue Dec 10, 12:10am

Tue Dec 10, 12:01am

Mon Dec 9, 11:10pm

Mon Dec 9, 11:01pm

Mon Dec 9, 10:10pm

Mon Dec 9, 10:00pm

Mon Dec 9, 9:10pm

Mon Dec 9, 9:01pm

Mon Dec 9, 8:10pm

Mon Dec 9, 8:01pm

Mon Dec 9, 7:10pm

Mon Dec 9, 7:00pm

Mon Dec 9, 6:00pm

Mon Dec 9, 5:10pm

Mon Dec 9, 5:01pm

Mon Dec 9, 4:10pm

Mon Dec 9, 4:01pm

Mon Dec 9, 3:10pm

Mon Dec 9, 3:01pm

Mon Dec 9, 2:10pm

Mon Dec 9, 2:00pm

Mon Dec 9, 1:10pm

Mon Dec 9, 1:00pm

Mon Dec 9, 12:10pm

Mon Dec 9, 12:00pm

Mon Dec 9, 11:10am

Mon Dec 9, 11:00am

Mon Dec 9, 10:10am

Mon Dec 9, 10:00am

Mon Dec 9, 9:10am

Mon Dec 9, 9:00am

Mon Dec 9, 8:10am

Mon Dec 9, 8:00am

Mon Dec 9, 7:10am

Mon Dec 9, 7:00am

Mon Dec 9, 6:10am

Mon Dec 9, 6:00am

Mon Dec 9, 5:10am

Mon Dec 9, 5:00am

Mon Dec 9, 4:10am

Mon Dec 9, 4:00am

Mon Dec 9, 3:10am

Mon Dec 9, 3:00am

Mon Dec 9, 2:10am

Mon Dec 9, 2:00am

Mon Dec 9, 1:10am

Mon Dec 9, 1:00am

Mon Dec 9, 12:10am

Mon Dec 9, 12:00am

Sun Dec 8, 11:10pm

Sun Dec 8, 11:00pm

Sun Dec 8, 10:10pm

Sun Dec 8, 10:01pm

Sun Dec 8, 9:10pm

Sun Dec 8, 9:01pm

Sun Dec 8, 8:10pm

Sun Dec 8, 8:00pm

Sun Dec 8, 7:10pm

Sun Dec 8, 7:00pm

Sun Dec 8, 6:10pm

Sun Dec 8, 6:01pm

Sun Dec 8, 5:10pm

Sun Dec 8, 5:00pm

Sun Dec 8, 4:10pm

Sun Dec 8, 4:01pm

Sun Dec 8, 3:10pm

Sun Dec 8, 3:01pm

Sun Dec 8, 2:10pm

Sun Dec 8, 2:01pm

Sun Dec 8, 1:10pm

Sun Dec 8, 1:00pm

Sun Dec 8, 12:10pm

Sun Dec 8, 12:01pm

Sun Dec 8, 11:10am

Sun Dec 8, 11:00am

Sun Dec 8, 10:10am

Sun Dec 8, 10:01am

Sun Dec 8, 9:10am

Sun Dec 8, 9:00am

Sun Dec 8, 8:10am

Sun Dec 8, 8:00am

Sun Dec 8, 7:10am

Sun Dec 8, 7:00am

Sun Dec 8, 6:10am

Sun Dec 8, 6:00am

Sun Dec 8, 5:10am

Sun Dec 8, 5:00am

Sun Dec 8, 4:10am

Sun Dec 8, 4:00am

Sun Dec 8, 3:10am

Sun Dec 8, 3:00am

Sun Dec 8, 2:10am

Sun Dec 8, 2:00am

Sun Dec 8, 1:10am

Sun Dec 8, 1:00am

Sun Dec 8, 12:10am

Sun Dec 8, 12:01am

Sat Dec 7, 11:10pm

Sat Dec 7, 11:00pm

Sat Dec 7, 10:10pm

Sat Dec 7, 10:00pm

Sat Dec 7, 9:10pm

Sat Dec 7, 9:00pm

Sat Dec 7, 8:10pm

Sat Dec 7, 8:00pm

Sat Dec 7, 7:10pm

Sat Dec 7, 7:00pm

Sat Dec 7, 6:10pm

Sat Dec 7, 6:00pm

Sat Dec 7, 5:10pm

Sat Dec 7, 5:00pm

Sat Dec 7, 4:10pm

Sat Dec 7, 4:00pm

Meta data:

ID: dbdaaa67-76bc-4edb-b2b4-3ab9c2f65be3
Link: https://api.weather.gov/products/dbdaaa67-76bc-4edb-b2b4-3ab9c2f65be3